Year,Month,Day,Hour,Minute,Value (Times are PST for windspeed in km/hr)
2011,11,20,00,00,4.50
2011,11,20,00,01,3.50
2011,11,20,00,02,4.00
2011,11,20,00,03,4.50
2011,11,20,00,04,5.30
2011,11,20,00,05,2.30
2011,11,20,00,06,3.10
2011,11,20,00,07,3.80
2011,11,20,00,08,4.10
2011,11,20,00,09,7.10
2011,11,20,00,10,5.30
2011,11,20,00,11,3.40
2011,11,20,00,12,3.60
2011,11,20,00,13,4.70
2011,11,20,00,14,4.80
2011,11,20,00,15,4.90
2011,11,20,00,16,3.60
2011,11,20,00,17,4.80
2011,11,20,00,18,3.40
2011,11,20,00,19,6.40
2011,11,20,00,20,4.90
2011,11,20,00,21,6.80
2011,11,20,00,22,5.90
2011,11,20,00,23,7.00
2011,11,20,00,24,6.80
2011,11,20,00,25,4.00
2011,11,20,00,26,7.40
2011,11,20,00,27,3.50
2011,11,20,00,28,6.10
2011,11,20,00,29,5.60
2011,11,20,00,30,4.30
2011,11,20,00,31,3.90
2011,11,20,00,32,4.30
2011,11,20,00,33,5.30
2011,11,20,00,34,3.40
2011,11,20,00,35,5.70
2011,11,20,00,36,6.60
2011,11,20,00,37,8.50
2011,11,20,00,38,7.50
2011,11,20,00,39,8.90
2011,11,20,00,40,4.30
2011,11,20,00,41,7.50
2011,11,20,00,42,7.20
2011,11,20,00,43,5.30
2011,11,20,00,44,7.80
2011,11,20,00,45,3.70
2011,11,20,00,46,6.80
2011,11,20,00,47,5.70
2011,11,20,00,48,4.90
2011,11,20,00,49,6.90
2011,11,20,00,50,5.30
2011,11,20,00,51,7.20
2011,11,20,00,52,4.50
2011,11,20,00,53,3.50
2011,11,20,00,54,7.00
2011,11,20,00,55,4.70
2011,11,20,00,56,7.10
2011,11,20,00,57,3.30
2011,11,20,00,58,4.80
2011,11,20,00,59,4.60
2011,11,20,01,00,4.70
2011,11,20,01,01,5.80
2011,11,20,01,02,7.40
2011,11,20,01,03,5.80
2011,11,20,01,04,6.40
2011,11,20,01,05,4.90
2011,11,20,01,06,7.60
2011,11,20,01,07,7.10
2011,11,20,01,08,6.40
2011,11,20,01,09,7.30
2011,11,20,01,10,6.30
2011,11,20,01,11,3.00
2011,11,20,01,12,6.40
2011,11,20,01,13,3.10
2011,11,20,01,14,7.50
2011,11,20,01,15,4.80
2011,11,20,01,16,5.80
2011,11,20,01,17,10.20
2011,11,20,01,18,7.60
2011,11,20,01,19,6.80
2011,11,20,01,20,7.20
2011,11,20,01,21,5.60
2011,11,20,01,22,6.80
2011,11,20,01,23,5.80
2011,11,20,01,24,7.20
2011,11,20,01,25,9.80
2011,11,20,01,26,7.60
2011,11,20,01,27,3.40
2011,11,20,01,28,3.70
2011,11,20,01,29,3.50
2011,11,20,01,30,3.60
2011,11,20,01,31,4.80
2011,11,20,01,32,7.90
2011,11,20,01,33,8.50
2011,11,20,01,34,8.40
2011,11,20,01,35,7.80
2011,11,20,01,36,6.00
2011,11,20,01,37,5.80
2011,11,20,01,38,3.90
2011,11,20,01,39,8.10
2011,11,20,01,40,1.30
2011,11,20,01,41,2.00
2011,11,20,01,42,4.20
2011,11,20,01,43,3.10
2011,11,20,01,44,2.60
2011,11,20,01,45,3.10
2011,11,20,01,46,2.10
2011,11,20,01,47,1.70
2011,11,20,01,48,1.30
2011,11,20,01,49,1.80
2011,11,20,01,50,2.10
2011,11,20,01,51,1.20
2011,11,20,01,52,1.20
2011,11,20,01,53,2.00
2011,11,20,01,54,2.00
2011,11,20,01,55,1.40
2011,11,20,01,56,0.20
2011,11,20,01,57,0.10
2011,11,20,01,58,1.50
2011,11,20,01,59,1.10
2011,11,20,02,00,1.50
2011,11,20,02,01,1.30
2011,11,20,02,02,0.90
2011,11,20,02,03,0.10
2011,11,20,02,04,1.90
2011,11,20,02,05,1.50
2011,11,20,02,06,0.10
2011,11,20,02,07,1.80
2011,11,20,02,08,2.60
2011,11,20,02,09,3.00
2011,11,20,02,10,4.60
2011,11,20,02,11,4.50
2011,11,20,02,12,2.80
2011,11,20,02,13,4.50
2011,11,20,02,14,0.60
2011,11,20,02,15,0.20
2011,11,20,02,16,0.00
2011,11,20,02,17,0.00
2011,11,20,02,18,0.00
2011,11,20,02,19,0.00
2011,11,20,02,20,1.20
2011,11,20,02,21,4.20
2011,11,20,02,22,2.10
2011,11,20,02,23,0.00
2011,11,20,02,24,0.00
2011,11,20,02,25,0.60
2011,11,20,02,26,2.40
2011,11,20,02,27,2.30
2011,11,20,02,28,3.50
2011,11,20,02,29,2.60
2011,11,20,02,30,2.00
2011,11,20,02,31,3.50
2011,11,20,02,32,0.20
2011,11,20,02,33,0.20
2011,11,20,02,34,4.60
2011,11,20,02,35,1.60
2011,11,20,02,36,2.00
2011,11,20,02,37,0.00
2011,11,20,02,38,0.00
2011,11,20,02,39,0.00
2011,11,20,02,40,0.00
2011,11,20,02,41,0.00
2011,11,20,02,42,0.10
2011,11,20,02,43,0.00
2011,11,20,02,44,0.00
2011,11,20,02,45,0.10
2011,11,20,02,46,0.50
2011,11,20,02,47,0.00
2011,11,20,02,48,0.00
2011,11,20,02,49,0.00
2011,11,20,02,50,0.00
2011,11,20,02,51,0.00
2011,11,20,02,52,0.00
2011,11,20,02,53,0.00
2011,11,20,02,54,0.00
2011,11,20,02,55,0.00
2011,11,20,02,56,0.00
2011,11,20,02,57,0.00
2011,11,20,02,58,0.00
2011,11,20,02,59,0.00
2011,11,20,03,00,0.00
2011,11,20,03,01,0.00
2011,11,20,03,02,0.00
2011,11,20,03,03,0.00
2011,11,20,03,04,0.00
2011,11,20,03,05,0.00
2011,11,20,03,06,0.00
2011,11,20,03,07,0.00
2011,11,20,03,08,0.40
2011,11,20,03,09,1.10
2011,11,20,03,10,2.10
2011,11,20,03,11,0.00
2011,11,20,03,12,1.10
2011,11,20,03,13,0.00
2011,11,20,03,14,0.00
2011,11,20,03,15,0.00
2011,11,20,03,16,0.00
2011,11,20,03,17,0.00
2011,11,20,03,18,0.60
2011,11,20,03,19,0.40
2011,11,20,03,20,0.00
2011,11,20,03,21,0.00
2011,11,20,03,22,0.30
2011,11,20,03,23,0.90
2011,11,20,03,24,0.10
2011,11,20,03,25,0.00
2011,11,20,03,26,0.00
2011,11,20,03,27,0.00
2011,11,20,03,28,0.00
2011,11,20,03,29,0.00
2011,11,20,03,30,0.00
2011,11,20,03,31,0.00
2011,11,20,03,32,0.00
2011,11,20,03,33,0.00
2011,11,20,03,34,0.00
2011,11,20,03,35,0.00
2011,11,20,03,36,0.00
2011,11,20,03,37,0.00
2011,11,20,03,38,0.00
2011,11,20,03,39,0.00
2011,11,20,03,40,1.50
2011,11,20,03,41,2.00
2011,11,20,03,42,1.50
2011,11,20,03,43,0.40
2011,11,20,03,44,0.60
2011,11,20,03,45,0.00
2011,11,20,03,46,0.00
2011,11,20,03,47,0.00
2011,11,20,03,48,0.00
2011,11,20,03,49,0.00
2011,11,20,03,50,0.00
2011,11,20,03,51,1.00
2011,11,20,03,52,1.90
2011,11,20,03,53,0.00
2011,11,20,03,54,0.10
2011,11,20,03,55,0.00
2011,11,20,03,56,0.00
2011,11,20,03,57,0.00
2011,11,20,03,58,0.80
2011,11,20,03,59,0.00
2011,11,20,04,00,0.00
2011,11,20,04,01,0.00
2011,11,20,04,02,0.20
2011,11,20,04,03,0.00
2011,11,20,04,04,1.00
2011,11,20,04,05,2.30
2011,11,20,04,06,3.60
2011,11,20,04,07,2.40
2011,11,20,04,08,0.80
2011,11,20,04,09,0.00
2011,11,20,04,10,1.80
2011,11,20,04,11,0.60
2011,11,20,04,12,0.00
2011,11,20,04,13,0.00
2011,11,20,04,14,1.30
2011,11,20,04,15,0.20
2011,11,20,04,16,0.20
2011,11,20,04,17,0.70
2011,11,20,04,18,0.00
2011,11,20,04,19,0.20
2011,11,20,04,20,1.30
2011,11,20,04,21,0.20
2011,11,20,04,22,1.40
2011,11,20,04,23,1.20
2011,11,20,04,24,0.80
2011,11,20,04,25,0.60
2011,11,20,04,26,2.30
2011,11,20,04,27,0.20
2011,11,20,04,28,0.00
2011,11,20,04,29,0.00
2011,11,20,04,30,0.00
2011,11,20,04,31,0.00
2011,11,20,04,32,0.00
2011,11,20,04,33,0.10
2011,11,20,04,34,1.70
2011,11,20,04,35,1.40
2011,11,20,04,36,0.00
2011,11,20,04,37,0.70
2011,11,20,04,38,0.30
2011,11,20,04,39,0.00
2011,11,20,04,40,2.00
2011,11,20,04,41,1.10
2011,11,20,04,42,3.50
2011,11,20,04,43,2.60
2011,11,20,04,44,0.60
2011,11,20,04,45,1.90
2011,11,20,04,46,2.40
2011,11,20,04,47,1.20
2011,11,20,04,48,0.20
2011,11,20,04,49,0.80
2011,11,20,04,50,0.30
2011,11,20,04,51,0.00
2011,11,20,04,52,0.10
2011,11,20,04,53,1.20
2011,11,20,04,54,0.70
2011,11,20,04,55,0.70
2011,11,20,04,56,2.00
2011,11,20,04,57,1.00
2011,11,20,04,58,0.50
2011,11,20,04,59,1.50
2011,11,20,05,00,1.30
2011,11,20,05,01,2.70
2011,11,20,05,02,4.20
2011,11,20,05,03,3.10
2011,11,20,05,04,4.20
2011,11,20,05,05,3.40
2011,11,20,05,06,3.90
2011,11,20,05,07,4.10
2011,11,20,05,08,3.70
2011,11,20,05,09,4.00
2011,11,20,05,10,2.20
2011,11,20,05,11,2.30
2011,11,20,05,12,1.60
2011,11,20,05,13,2.20
2011,11,20,05,14,2.00
2011,11,20,05,15,4.30
2011,11,20,05,16,1.50
2011,11,20,05,17,2.00
2011,11,20,05,18,3.00
2011,11,20,05,19,2.10
2011,11,20,05,20,3.20
2011,11,20,05,21,5.40
2011,11,20,05,22,7.50
2011,11,20,05,23,3.90
2011,11,20,05,24,6.80
2011,11,20,05,25,5.30
2011,11,20,05,26,2.20
2011,11,20,05,27,2.90
2011,11,20,05,28,3.00
2011,11,20,05,29,5.40
2011,11,20,05,30,4.20
2011,11,20,05,31,6.70
2011,11,20,05,32,5.40
2011,11,20,05,33,5.40
2011,11,20,05,34,4.30
2011,11,20,05,35,5.60
2011,11,20,05,36,3.70
2011,11,20,05,37,6.20
2011,11,20,05,38,7.60
2011,11,20,05,39,6.30
2011,11,20,05,40,3.70
2011,11,20,05,41,4.20
2011,11,20,05,42,3.50
2011,11,20,05,43,4.40
2011,11,20,05,44,4.10
2011,11,20,05,45,4.90
2011,11,20,05,46,3.40
2011,11,20,05,47,4.30
2011,11,20,05,48,6.00
2011,11,20,05,49,4.60
2011,11,20,05,50,5.90
2011,11,20,05,51,4.30
2011,11,20,05,52,7.30
2011,11,20,05,53,5.10
2011,11,20,05,54,5.40
2011,11,20,05,55,6.00
2011,11,20,05,56,5.30
2011,11,20,05,57,8.30
2011,11,20,05,58,9.40
2011,11,20,05,59,9.90
2011,11,20,06,00,7.20
2011,11,20,06,01,6.60
2011,11,20,06,02,7.30
2011,11,20,06,03,9.20
2011,11,20,06,04,7.60
2011,11,20,06,05,8.00
2011,11,20,06,06,7.50
2011,11,20,06,07,5.60
2011,11,20,06,08,8.40
2011,11,20,06,09,7.00
2011,11,20,06,10,10.10
2011,11,20,06,11,6.00
2011,11,20,06,12,9.10
2011,11,20,06,13,8.40
2011,11,20,06,14,10.00
2011,11,20,06,15,8.70
2011,11,20,06,16,11.90
2011,11,20,06,17,6.20
2011,11,20,06,18,7.60
2011,11,20,06,19,6.40
2011,11,20,06,20,10.00
2011,11,20,06,21,7.00
2011,11,20,06,22,8.90
2011,11,20,06,23,9.30
2011,11,20,06,24,8.50
2011,11,20,06,25,6.80
2011,11,20,06,26,9.60
2011,11,20,06,27,11.40
2011,11,20,06,28,10.30
2011,11,20,06,29,8.90
2011,11,20,06,30,9.80
2011,11,20,06,31,7.70
2011,11,20,06,32,10.20
2011,11,20,06,33,8.50
2011,11,20,06,34,8.50
2011,11,20,06,35,6.80
2011,11,20,06,36,6.40
2011,11,20,06,37,8.20
2011,11,20,06,38,8.90
2011,11,20,06,39,6.70
2011,11,20,06,40,7.60
2011,11,20,06,41,9.00
2011,11,20,06,42,8.10
2011,11,20,06,43,8.70
2011,11,20,06,44,8.40
2011,11,20,06,45,8.20
2011,11,20,06,46,8.10
2011,11,20,06,47,8.60
2011,11,20,06,48,11.20
2011,11,20,06,49,7.60
2011,11,20,06,50,7.40
2011,11,20,06,51,7.30
2011,11,20,06,52,8.00
2011,11,20,06,53,7.70
2011,11,20,06,54,8.10
2011,11,20,06,55,9.20
2011,11,20,06,56,8.60
2011,11,20,06,57,12.80
2011,11,20,06,58,7.10
2011,11,20,06,59,5.90
2011,11,20,07,00,13.00
2011,11,20,07,01,5.90
2011,11,20,07,02,7.20
2011,11,20,07,03,6.80
2011,11,20,07,04,5.20
2011,11,20,07,05,6.40
2011,11,20,07,06,9.10
2011,11,20,07,07,6.30
2011,11,20,07,08,9.30
2011,11,20,07,09,8.50
2011,11,20,07,10,8.50
2011,11,20,07,11,9.70
2011,11,20,07,12,9.40
2011,11,20,07,13,11.10
2011,11,20,07,14,12.20
2011,11,20,07,15,10.10
2011,11,20,07,16,5.00
2011,11,20,07,17,12.60
2011,11,20,07,18,10.50
2011,11,20,07,19,7.70
2011,11,20,07,20,8.50
2011,11,20,07,21,9.60
2011,11,20,07,22,10.10
2011,11,20,07,23,7.60
2011,11,20,07,24,7.70
2011,11,20,07,25,8.20
2011,11,20,07,26,8.40
2011,11,20,07,27,5.70
2011,11,20,07,28,10.70
2011,11,20,07,29,12.70
2011,11,20,07,30,9.50
2011,11,20,07,31,8.90
2011,11,20,07,32,8.50
2011,11,20,07,33,11.00
2011,11,20,07,34,8.70
2011,11,20,07,35,7.70
2011,11,20,07,36,9.80
2011,11,20,07,37,9.30
2011,11,20,07,38,11.60
2011,11,20,07,39,10.70
2011,11,20,07,40,11.20
2011,11,20,07,41,6.60
2011,11,20,07,42,8.00
2011,11,20,07,43,11.90
2011,11,20,07,44,11.70
2011,11,20,07,45,10.80
2011,11,20,07,46,9.60
2011,11,20,07,47,10.50
2011,11,20,07,48,8.70
2011,11,20,07,49,8.50
2011,11,20,07,50,13.70
2011,11,20,07,51,10.50
2011,11,20,07,52,9.70
2011,11,20,07,53,11.80
2011,11,20,07,54,8.10
2011,11,20,07,55,6.60
2011,11,20,07,56,8.00
2011,11,20,07,57,8.90
2011,11,20,07,58,11.00
2011,11,20,07,59,6.20
2011,11,20,08,00,7.90
2011,11,20,08,01,11.00
2011,11,20,08,02,10.30
2011,11,20,08,03,11.00
2011,11,20,08,04,7.60
2011,11,20,08,05,7.30
2011,11,20,08,06,9.30
2011,11,20,08,07,8.80
2011,11,20,08,08,12.60
2011,11,20,08,09,12.50
2011,11,20,08,10,10.70
2011,11,20,08,11,8.40
2011,11,20,08,12,10.20
2011,11,20,08,13,14.10
2011,11,20,08,14,9.30
2011,11,20,08,15,8.70
2011,11,20,08,16,10.60
2011,11,20,08,17,11.10
2011,11,20,08,18,10.60
2011,11,20,08,19,10.30
2011,11,20,08,20,11.30
2011,11,20,08,21,10.50
2011,11,20,08,22,11.80
2011,11,20,08,23,9.60
2011,11,20,08,24,5.90
2011,11,20,08,25,8.70
2011,11,20,08,26,11.70
2011,11,20,08,27,12.50
2011,11,20,08,28,11.90
2011,11,20,08,29,13.80
2011,11,20,08,30,9.70
2011,11,20,08,31,11.20
2011,11,20,08,32,9.20
2011,11,20,08,33,9.40
2011,11,20,08,34,7.70
2011,11,20,08,35,14.60
2011,11,20,08,36,11.80
2011,11,20,08,37,6.90
2011,11,20,08,38,13.40
2011,11,20,08,39,10.10
2011,11,20,08,40,10.60
2011,11,20,08,41,10.60
2011,11,20,08,42,10.00
2011,11,20,08,43,12.30
2011,11,20,08,44,10.00
2011,11,20,08,45,11.10
2011,11,20,08,46,10.50
2011,11,20,08,47,13.40
2011,11,20,08,48,9.20
2011,11,20,08,49,8.30
2011,11,20,08,50,10.40
2011,11,20,08,51,11.40
2011,11,20,08,52,10.70
2011,11,20,08,53,10.10
2011,11,20,08,54,14.00
2011,11,20,08,55,11.00
2011,11,20,08,56,11.40
2011,11,20,08,57,9.40
2011,11,20,08,58,10.50
2011,11,20,08,59,12.80
2011,11,20,09,00,9.90
2011,11,20,09,01,7.50
2011,11,20,09,02,9.90
2011,11,20,09,03,11.10
2011,11,20,09,04,13.80
2011,11,20,09,05,6.10
2011,11,20,09,06,8.10
2011,11,20,09,07,9.30
2011,11,20,09,08,10.70
2011,11,20,09,09,12.60
2011,11,20,09,10,10.50
2011,11,20,09,11,8.00
2011,11,20,09,12,9.60
2011,11,20,09,13,12.50
2011,11,20,09,14,9.50
2011,11,20,09,15,8.90
2011,11,20,09,16,10.50
2011,11,20,09,17,9.70
2011,11,20,09,18,8.60
2011,11,20,09,19,7.70
2011,11,20,09,20,11.70
2011,11,20,09,21,12.00
2011,11,20,09,22,9.30
2011,11,20,09,23,6.90
2011,11,20,09,24,10.70
2011,11,20,09,25,11.00
2011,11,20,09,26,10.10
2011,11,20,09,27,5.00
2011,11,20,09,28,11.80
2011,11,20,09,29,8.90
2011,11,20,09,30,9.50
2011,11,20,09,31,13.00
2011,11,20,09,32,12.20
2011,11,20,09,33,12.90
2011,11,20,09,34,9.60
2011,11,20,09,35,10.90
2011,11,20,09,36,9.70
2011,11,20,09,37,10.80
2011,11,20,09,38,9.80
2011,11,20,09,39,11.10
2011,11,20,09,40,7.60
2011,11,20,09,41,11.30
2011,11,20,09,42,8.20
2011,11,20,09,43,9.20
2011,11,20,09,44,12.40
2011,11,20,09,45,12.30
2011,11,20,09,46,11.10
2011,11,20,09,47,12.10
2011,11,20,09,48,9.80
2011,11,20,09,49,9.20
2011,11,20,09,50,8.30
2011,11,20,09,51,12.70
2011,11,20,09,52,11.00
2011,11,20,09,53,13.80
2011,11,20,09,54,9.00
2011,11,20,09,55,10.70
2011,11,20,09,56,11.80
2011,11,20,09,57,10.10
2011,11,20,09,58,10.00
2011,11,20,09,59,9.30
2011,11,20,10,00,9.70
2011,11,20,10,01,8.50
2011,11,20,10,02,12.40
2011,11,20,10,03,12.20
2011,11,20,10,04,13.20
2011,11,20,10,05,11.70
2011,11,20,10,06,8.90
2011,11,20,10,07,11.00
2011,11,20,10,08,9.70
2011,11,20,10,09,10.60
2011,11,20,10,10,10.50
2011,11,20,10,11,6.90
2011,11,20,10,12,10.90
2011,11,20,10,13,10.70
2011,11,20,10,14,12.20
2011,11,20,10,15,8.90
2011,11,20,10,16,10.80
2011,11,20,10,17,12.00
2011,11,20,10,18,10.60
2011,11,20,10,19,11.60
2011,11,20,10,20,13.20
2011,11,20,10,21,13.70
2011,11,20,10,22,8.80
2011,11,20,10,23,11.80
2011,11,20,10,24,12.10
2011,11,20,10,25,10.10
2011,11,20,10,26,11.50
2011,11,20,10,27,8.10
2011,11,20,10,28,13.20
2011,11,20,10,29,10.00
2011,11,20,10,30,7.40
2011,11,20,10,31,7.40
2011,11,20,10,32,9.50
2011,11,20,10,33,9.00
2011,11,20,10,34,10.30
2011,11,20,10,35,13.20
2011,11,20,10,36,10.80
2011,11,20,10,37,8.90
2011,11,20,10,38,12.60
2011,11,20,10,39,7.60
2011,11,20,10,40,8.70
2011,11,20,10,41,12.60
2011,11,20,10,42,9.50
2011,11,20,10,43,8.60
2011,11,20,10,44,10.80
2011,11,20,10,45,11.80
2011,11,20,10,46,8.20
2011,11,20,10,47,10.70
2011,11,20,10,48,8.70
2011,11,20,10,49,10.90
2011,11,20,10,50,10.90
2011,11,20,10,51,11.70
2011,11,20,10,52,9.80
2011,11,20,10,53,6.00
2011,11,20,10,54,7.10
2011,11,20,10,55,10.50
2011,11,20,10,56,11.70
2011,11,20,10,57,13.10
2011,11,20,10,58,10.70
2011,11,20,10,59,5.80
2011,11,20,11,00,11.50
2011,11,20,11,01,9.40
2011,11,20,11,02,14.70
2011,11,20,11,03,8.90
2011,11,20,11,04,11.90
2011,11,20,11,05,11.90
2011,11,20,11,06,14.10
2011,11,20,11,07,9.70
2011,11,20,11,08,10.40
2011,11,20,11,09,11.80
2011,11,20,11,10,9.60
2011,11,20,11,11,9.90
2011,11,20,11,12,10.50
2011,11,20,11,13,9.50
2011,11,20,11,14,8.70
2011,11,20,11,15,7.50
2011,11,20,11,16,9.90
2011,11,20,11,17,10.40
2011,11,20,11,18,7.40
2011,11,20,11,19,12.00
2011,11,20,11,20,11.00
2011,11,20,11,21,9.30
2011,11,20,11,22,11.90
2011,11,20,11,23,10.20
2011,11,20,11,24,10.20
2011,11,20,11,25,11.30
2011,11,20,11,26,9.90
2011,11,20,11,27,7.20
2011,11,20,11,28,7.00
2011,11,20,11,29,9.80
2011,11,20,11,30,8.40
2011,11,20,11,31,6.50
2011,11,20,11,32,9.50
2011,11,20,11,33,11.40
2011,11,20,11,34,8.20
2011,11,20,11,35,7.00
2011,11,20,11,36,10.70
2011,11,20,11,37,7.40
2011,11,20,11,38,8.90
2011,11,20,11,39,7.00
2011,11,20,11,40,9.70
2011,11,20,11,41,12.50
2011,11,20,11,42,9.70
2011,11,20,11,43,9.00
2011,11,20,11,44,7.80
2011,11,20,11,45,8.10
2011,11,20,11,46,11.30
2011,11,20,11,47,8.00
2011,11,20,11,48,9.90
2011,11,20,11,49,14.60
2011,11,20,11,50,8.80
2011,11,20,11,51,9.20
2011,11,20,11,52,13.40
2011,11,20,11,53,6.80
2011,11,20,11,54,9.50
2011,11,20,11,55,9.10
2011,11,20,11,56,8.50
2011,11,20,11,57,7.40
2011,11,20,11,58,7.40
2011,11,20,11,59,4.90
2011,11,20,12,00,8.50
2011,11,20,12,01,7.50
2011,11,20,12,02,10.30
2011,11,20,12,03,9.00
2011,11,20,12,04,9.90
2011,11,20,12,05,9.70
2011,11,20,12,06,7.70
2011,11,20,12,07,8.50
2011,11,20,12,08,9.20
2011,11,20,12,09,11.20
2011,11,20,12,10,8.40
2011,11,20,12,11,8.20
2011,11,20,12,12,10.40
2011,11,20,12,13,8.70
2011,11,20,12,14,6.80
2011,11,20,12,15,5.80
2011,11,20,12,16,8.10
2011,11,20,12,17,7.80
2011,11,20,12,18,7.40
2011,11,20,12,19,5.60
2011,11,20,12,20,8.20
2011,11,20,12,21,9.20
2011,11,20,12,22,7.50
2011,11,20,12,23,8.50
2011,11,20,12,24,4.80
2011,11,20,12,25,9.70
2011,11,20,12,26,8.70
2011,11,20,12,27,9.80
2011,11,20,12,28,9.80
2011,11,20,12,29,8.60
2011,11,20,12,30,6.80
2011,11,20,12,31,11.30
2011,11,20,12,32,6.20
2011,11,20,12,33,8.50
2011,11,20,12,34,10.30
2011,11,20,12,35,8.70
2011,11,20,12,36,9.70
2011,11,20,12,37,8.10
2011,11,20,12,38,6.10
2011,11,20,12,39,7.70
2011,11,20,12,40,4.80
2011,11,20,12,41,8.50
2011,11,20,12,42,8.90
2011,11,20,12,43,8.30
2011,11,20,12,44,9.00
2011,11,20,12,45,6.70
2011,11,20,12,46,8.30
2011,11,20,12,47,5.90
2011,11,20,12,48,5.60
2011,11,20,12,49,3.40
2011,11,20,12,50,8.40
2011,11,20,12,51,6.80
2011,11,20,12,52,5.70
2011,11,20,12,53,6.90
2011,11,20,12,54,6.00
2011,11,20,12,55,5.60
2011,11,20,12,56,11.10
2011,11,20,12,57,3.60
2011,11,20,12,58,1.80
2011,11,20,12,59,1.50
2011,11,20,13,00,1.80
2011,11,20,13,01,2.60
2011,11,20,13,02,4.10
2011,11,20,13,03,2.50
2011,11,20,13,04,3.30
2011,11,20,13,05,8.40
2011,11,20,13,06,8.80
2011,11,20,13,07,6.80
2011,11,20,13,08,6.90
2011,11,20,13,09,8.10
2011,11,20,13,10,5.90
2011,11,20,13,11,5.60
2011,11,20,13,12,4.70
2011,11,20,13,13,5.50
2011,11,20,13,14,3.90
2011,11,20,13,15,6.30
2011,11,20,13,16,4.00
2011,11,20,13,17,7.70
2011,11,20,13,18,4.70
2011,11,20,13,19,5.70
2011,11,20,13,20,5.80
2011,11,20,13,21,4.90
2011,11,20,13,22,5.10
2011,11,20,13,23,5.80
2011,11,20,13,24,6.40
2011,11,20,13,25,7.40
2011,11,20,13,26,7.80
2011,11,20,13,27,6.80
2011,11,20,13,28,7.10
2011,11,20,13,29,8.00
2011,11,20,13,30,7.80
2011,11,20,13,31,4.80
2011,11,20,13,32,6.40
2011,11,20,13,33,7.00
2011,11,20,13,34,7.20
2011,11,20,13,35,7.80
2011,11,20,13,36,4.90
2011,11,20,13,37,5.30
2011,11,20,13,38,5.00
2011,11,20,13,39,10.10
2011,11,20,13,40,8.80
2011,11,20,13,41,6.80
2011,11,20,13,42,4.70
2011,11,20,13,43,6.50
2011,11,20,13,44,10.10
2011,11,20,13,45,5.50
2011,11,20,13,46,3.10
2011,11,20,13,47,1.50
2011,11,20,13,48,4.90
2011,11,20,13,49,7.50
2011,11,20,13,50,5.60
2011,11,20,13,51,3.60
2011,11,20,13,52,4.30
2011,11,20,13,53,5.50
2011,11,20,13,54,4.70
2011,11,20,13,55,6.60
2011,11,20,13,56,6.10
2011,11,20,13,57,5.30
2011,11,20,13,58,7.30
2011,11,20,13,59,8.20
2011,11,20,14,00,4.80
2011,11,20,14,01,4.20
2011,11,20,14,02,3.90
2011,11,20,14,03,4.70
2011,11,20,14,04,3.80
2011,11,20,14,05,4.40
2011,11,20,14,06,3.90
2011,11,20,14,07,1.90
2011,11,20,14,08,4.10
2011,11,20,14,09,5.90
2011,11,20,14,10,8.40
2011,11,20,14,11,8.10
2011,11,20,14,12,9.40
2011,11,20,14,13,6.60
2011,11,20,14,14,7.70
2011,11,20,14,15,5.10
2011,11,20,14,16,6.30
2011,11,20,14,17,4.80
2011,11,20,14,18,3.80
2011,11,20,14,19,5.80
2011,11,20,14,20,0.90
2011,11,20,14,21,3.30
2011,11,20,14,22,5.30
2011,11,20,14,23,6.70
2011,11,20,14,24,3.60
2011,11,20,14,25,4.30
2011,11,20,14,26,5.20
2011,11,20,14,27,8.20
2011,11,20,14,28,4.70
2011,11,20,14,29,4.60
2011,11,20,14,30,5.80
2011,11,20,14,31,2.20
2011,11,20,14,32,4.50
2011,11,20,14,33,7.90
2011,11,20,14,34,5.40
2011,11,20,14,35,9.20
2011,11,20,14,36,2.80
2011,11,20,14,37,3.50
2011,11,20,14,38,3.50
2011,11,20,14,39,6.90
2011,11,20,14,40,3.00
2011,11,20,14,41,8.00
2011,11,20,14,42,9.70
2011,11,20,14,43,6.80
2011,11,20,14,44,5.20
2011,11,20,14,45,7.90
2011,11,20,14,46,7.90
2011,11,20,14,47,7.00
2011,11,20,14,48,9.20
2011,11,20,14,49,4.40
2011,11,20,14,50,3.80
2011,11,20,14,51,6.80
2011,11,20,14,52,9.70
2011,11,20,14,53,7.70
2011,11,20,14,54,8.10
2011,11,20,14,55,7.30
2011,11,20,14,56,3.40
2011,11,20,14,57,5.80
2011,11,20,14,58,7.30
2011,11,20,14,59,5.10
2011,11,20,15,00,10.10
2011,11,20,15,01,4.70
2011,11,20,15,02,5.90
2011,11,20,15,03,7.00
2011,11,20,15,04,3.90
2011,11,20,15,05,4.70
2011,11,20,15,06,5.40
2011,11,20,15,07,6.80
2011,11,20,15,08,9.00
2011,11,20,15,09,3.50
2011,11,20,15,10,8.20
2011,11,20,15,11,8.50
2011,11,20,15,12,5.00
2011,11,20,15,13,4.20
2011,11,20,15,14,5.20
2011,11,20,15,15,5.20
2011,11,20,15,16,7.90
2011,11,20,15,17,5.30
2011,11,20,15,18,3.80
2011,11,20,15,19,5.80
2011,11,20,15,20,6.10
2011,11,20,15,21,7.10
2011,11,20,15,22,3.40
2011,11,20,15,23,6.00
2011,11,20,15,24,7.10
2011,11,20,15,25,4.40
2011,11,20,15,26,6.50
2011,11,20,15,27,5.50
2011,11,20,15,28,4.50
2011,11,20,15,29,7.20
2011,11,20,15,30,6.40
2011,11,20,15,31,7.10
2011,11,20,15,32,4.50
2011,11,20,15,33,5.60
2011,11,20,15,34,3.90
2011,11,20,15,35,3.90
2011,11,20,15,36,4.50
2011,11,20,15,37,9.00
2011,11,20,15,38,5.10
2011,11,20,15,39,6.00
2011,11,20,15,40,3.40
2011,11,20,15,41,7.10
2011,11,20,15,42,7.50
2011,11,20,15,43,9.10
2011,11,20,15,44,4.50
2011,11,20,15,45,6.70
2011,11,20,15,46,6.20
2011,11,20,15,47,7.10
2011,11,20,15,48,5.00
2011,11,20,15,49,8.60
2011,11,20,15,50,5.60
2011,11,20,15,51,9.40
2011,11,20,15,52,7.70
2011,11,20,15,53,4.00
2011,11,20,15,54,8.30
2011,11,20,15,55,3.70
2011,11,20,15,56,4.80
2011,11,20,15,57,5.30
2011,11,20,15,58,3.50
2011,11,20,15,59,7.40
2011,11,20,16,00,7.20
2011,11,20,16,01,4.80
2011,11,20,16,02,3.60
2011,11,20,16,03,2.70
2011,11,20,16,04,10.10
2011,11,20,16,05,4.70
2011,11,20,16,06,3.80
2011,11,20,16,07,6.00
2011,11,20,16,08,4.70
2011,11,20,16,09,5.10
2011,11,20,16,10,6.40
2011,11,20,16,11,5.40
2011,11,20,16,12,5.50
2011,11,20,16,13,9.00
2011,11,20,16,14,7.80
2011,11,20,16,15,8.70
2011,11,20,16,16,6.30
2011,11,20,16,17,8.70
2011,11,20,16,18,8.00
2011,11,20,16,19,7.40
2011,11,20,16,20,6.40
2011,11,20,16,21,4.20
2011,11,20,16,22,9.30
2011,11,20,16,23,8.10
2011,11,20,16,24,12.90
2011,11,20,16,25,5.40
2011,11,20,16,26,5.30
2011,11,20,16,27,6.60
2011,11,20,16,28,6.00
2011,11,20,16,29,6.10
2011,11,20,16,30,9.00
2011,11,20,16,31,5.10
2011,11,20,16,32,6.60
2011,11,20,16,33,3.80
2011,11,20,16,34,5.00
2011,11,20,16,35,8.00
2011,11,20,16,36,5.50
2011,11,20,16,37,8.70
2011,11,20,16,38,7.70
2011,11,20,16,39,6.20
2011,11,20,16,40,7.80
2011,11,20,16,41,9.00
2011,11,20,16,42,2.30
2011,11,20,16,43,6.90
2011,11,20,16,44,7.20
2011,11,20,16,45,3.50
2011,11,20,16,46,6.00
2011,11,20,16,47,7.40
2011,11,20,16,48,6.40
2011,11,20,16,49,7.40
2011,11,20,16,50,9.00
2011,11,20,16,51,5.10
2011,11,20,16,52,12.90
2011,11,20,16,53,4.70
2011,11,20,16,54,8.00
2011,11,20,16,55,8.20
2011,11,20,16,56,5.90
2011,11,20,16,57,7.30
2011,11,20,16,58,4.20
2011,11,20,16,59,6.30
2011,11,20,17,00,9.00
2011,11,20,17,01,9.50
2011,11,20,17,02,8.20
2011,11,20,17,03,6.00
2011,11,20,17,04,4.90
2011,11,20,17,05,6.60
2011,11,20,17,06,3.00
2011,11,20,17,07,3.50
2011,11,20,17,08,6.80
2011,11,20,17,09,4.80
2011,11,20,17,10,4.30
2011,11,20,17,11,5.00
2011,11,20,17,12,5.30
2011,11,20,17,13,2.60
2011,11,20,17,14,5.60
2011,11,20,17,15,5.50
2011,11,20,17,16,4.10
2011,11,20,17,17,4.80
2011,11,20,17,18,5.40
2011,11,20,17,19,9.70
2011,11,20,17,20,7.60
2011,11,20,17,21,7.50
2011,11,20,17,22,7.20
2011,11,20,17,23,4.70
2011,11,20,17,24,3.00
2011,11,20,17,25,6.20
2011,11,20,17,26,9.30
2011,11,20,17,27,10.60
2011,11,20,17,28,6.00
2011,11,20,17,29,10.90
2011,11,20,17,30,10.20
2011,11,20,17,31,6.30
2011,11,20,17,32,6.10
2011,11,20,17,33,7.80
2011,11,20,17,34,6.50
2011,11,20,17,35,6.20
2011,11,20,17,36,8.20
2011,11,20,17,37,9.30
2011,11,20,17,38,8.20
2011,11,20,17,39,9.80
2011,11,20,17,40,3.10
2011,11,20,17,41,8.90
2011,11,20,17,42,9.10
2011,11,20,17,43,7.30
2011,11,20,17,44,8.70
2011,11,20,17,45,10.30
2011,11,20,17,46,6.70
2011,11,20,17,47,7.60
2011,11,20,17,48,5.70
2011,11,20,17,49,5.70
2011,11,20,17,50,7.80
2011,11,20,17,51,5.40
2011,11,20,17,52,2.30
2011,11,20,17,53,8.40
2011,11,20,17,54,7.70
2011,11,20,17,55,7.70
2011,11,20,17,56,6.70
2011,11,20,17,57,7.80
2011,11,20,17,58,10.00